Weather History for Pasco, WA

Change the Weather History Date:

Tuesday, November 20, 2012

  Actual Average Record
Temperature  
Mean Temperature 52 °F 40 °F  
Max Temperature 58 °F 48 °F 62 °F (1998)
Min Temperature 45 °F 32 °F 14 °F (2013)
Degree Days  
Heating Degree Days 13 25  
Month to date heating degree days 385 438  
Since 1 July heating degree days 829 956  
Cooling Degree Days 0 0  
Month to date cooling degree days 0 0  
Year to date cooling degree days 788 710  
Growing Degree Days 2 (Base 50)    
Moisture  
Dew Point 47 °F    
Average Humidity 82    
Maximum Humidity 96    
Minimum Humidity 68    
Precipitation  
Precipitation 0.35 in 0.04 in 0.85 in (1966)
Month to date precipitation 0.85 0.68  
Year to date precipitation 8.31 7.21  
Snow  
Snow 0.00 in - - ()
Snow Depth 0.00 in    
Sea Level Pressure  
Sea Level Pressure 29.73 in    
Wind  
Wind Speed 8 mph (SSE)    
Max Wind Speed 23 mph    
Max Gust Speed 30 mph    
Visibility 10 miles    
Events Rain    
T = Trace of Precipitation, MM = Missing Value Source: NWS Daily Summary

Daily Weather History Graph

Daily Weather History Graph

Search for Another Location

Airport:

Trip Planner

Search our weather history database for the weather conditions in past years. The results will help you decide how hot, cold, wet, or windy it might be!

Date:

Astronomy

Nov. 20, 2012 Rise Set
Actual Time 7:05 AM PST 4:18 PM PST
Civil Twilight 6:32 AM PST 4:51 PM PST
Nautical Twilight 5:55 AM PST 5:28 PM PST
Astronomical Twilight 5:19 AM PST 6:04 PM PST
Moon 12:29 PM PST (11/20) No Moon Set
Length of Visible Light 10h 19m
Length of Day
9h 13m
First Quarter, 52% of the Moon is Illuminated
Nov 20
First Quarter
Nov 28
Full
Dec 6
Last Quarter
Dec 13
New
Dec 19
First Quarter

Hourly Weather History & Observations

Time (PST) Temp. Windchill Dew Point Humidity Pressure Visibility Wind Dir Wind Speed Gust Speed Precip Events Conditions
12:53 AM 53.1 °F - 46.0 °F 77% 29.77 in 10.0 mi SSW 16.1 mph - N/A   Mostly Cloudy
1:53 AM 52.0 °F - 46.9 °F 83% 29.78 in 10.0 mi South 11.5 mph - N/A   Mostly Cloudy
2:53 AM 53.1 °F - 48.0 °F 83% 29.77 in 10.0 mi South 15.0 mph - 0.00 in Rain Light Rain
3:53 AM 51.1 °F - 48.0 °F 89% 29.79 in 10.0 mi North 4.6 mph - 0.00 in Rain Light Rain
4:53 AM 50.0 °F - 48.0 °F 93% 29.76 in 10.0 mi Calm Calm - 0.01 in   Overcast
5:53 AM 52.0 °F - 48.0 °F 86% 29.75 in 10.0 mi Calm Calm - 0.00 in Rain Light Rain
6:53 AM 51.1 °F - 48.0 °F 89% 29.74 in 9.0 mi Calm Calm - 0.00 in Rain Light Rain
7:53 AM 51.1 °F - 48.0 °F 89% 29.75 in 5.0 mi Calm Calm - 0.08 in Rain Rain
8:53 AM 50.0 °F - 48.9 °F 96% 29.74 in 10.0 mi SE 6.9 mph - 0.08 in Rain Light Rain
9:53 AM 51.1 °F - 48.9 °F 92% 29.73 in 7.0 mi SE 13.8 mph - 0.07 in Rain Rain
11:53 AM 51.1 °F - 50.0 °F 96% 29.69 in 10.0 mi ESE 11.5 mph - 0.03 in Rain Light Rain
12:53 PM 54.0 °F - 52.0 °F 93% 29.69 in 10.0 mi ESE 10.4 mph - 0.00 in   Mostly Cloudy
1:53 PM 55.0 °F - 51.1 °F 86% 29.67 in 10.0 mi SE 11.5 mph - N/A   Mostly Cloudy
2:53 PM 57.0 °F - 51.1 °F 81% 29.68 in 10.0 mi ENE 5.8 mph - N/A   Partly Cloudy
3:53 PM 55.9 °F - 51.1 °F 84% 29.68 in 10.0 mi Calm Calm - N/A   Scattered Clouds
4:53 PM 53.1 °F - 50.0 °F 89% 29.72 in 10.0 mi WNW 8.1 mph - N/A   Mostly Cloudy
5:53 PM 52.0 °F - 48.0 °F 86% 29.73 in 10.0 mi WSW 9.2 mph - N/A   Mostly Cloudy
6:53 PM 51.1 °F - 44.1 °F 77% 29.74 in 10.0 mi SW 6.9 mph - N/A   Overcast
7:53 PM 51.1 °F - 41.0 °F 68% 29.74 in 10.0 mi West 5.8 mph - N/A   Overcast
8:53 PM 51.1 °F - 42.1 °F 71% 29.75 in 10.0 mi SE 3.5 mph - N/A   Overcast
9:53 PM 50.0 °F - 43.0 °F 77% 29.73 in 10.0 mi South 5.8 mph - N/A   Mostly Cloudy
10:53 PM 48.0 °F - 44.1 °F 86% 29.72 in 10.0 mi East 3.5 mph - N/A   Mostly Cloudy
11:53 PM 45.0 °F 43.5 °F 44.1 °F 97% 29.71 in 10.0 mi WNW 3.5 mph - N/A   Overcast